DMSP 5D-2 F13 DEB, 42308

Orbit data source: Space-Track

DMSP 5D-2 F13 DEB, 42308 is space debris in SSO originally from a launch on Fri, 24 Mar 1995 UTC launched from the Air Force Western Test Range (AFWTR). Debris objects in space refer to the collection of defunct objects orbiting the Earth. Examples of debris include non-operational satellites, rocket bodies, and fragments generated from explosions, collisions, or faulty payload assembly.

Loading next visibility...
Identifier
42308, 1995-015JA
Orbit
SSO
Country
Flag of USUS
Related business
Manufacturer
Unknown
Mission
Spacecraft
Bus & Motor
Unknown
Mass
Unknown
Launch date (UTC)
1995-03-24 (31 years ago)
Launch vehicle
Unknown
Launch site
Air Force Western Test Range (AFWTR)
Object type
Payload
Rocket body
Debris
Shape & HBR
Unknown shape, 0.1 m
Radar Cross Section
Small (<0.1 m²)

Expand to show TLE details & history
Last TLE update: 2 days ago

TLE from 2 days ago
0 DMSP 5D-2 F13 DEB
1 42308U 95015JA  26070.36827296  .00018035  00000-0  38414-2 0  9994
2 42308  98.8713 118.8219 0018823 157.5029 202.6998 14.58904575563598
Epoch: 2026-03-11T08:50Z
TLE epoch observation values (Epoch: 2026-03-11T08:50:18.783Z)
Latitude
-0.00001°
Longitude
177.21012°
Altitude
711.967 km
Speed
7.493 km/s
True Right ascension
07h 55m 17s
True Declination
0° 00' 00"
Sunlit
Object was in full shadow at epoch
Visualization orbit readout
Latitude
Unknown
Longitude
Unknown
Altitude
Unknown
Speed
Unknown
Apparent Right ascension
Unknown
Apparent Declination
Unknown
Sunlit
N/A
Visualization observer readout
Local Sidereal Time
01:19:42
Azimuth
Unknown
Elevation
Unknown
Doppler factor
Unknown
Orbital elements
Apogee altitude
707.14 km
Perigee altitude
680.516 km
Semi-major axis
7,071.965 km
Eccentricity
0.00188
Inclination
98.8713°
RAAN
118.8219°
Arg. of periapsis
157.5029°
True anomaly
202.61674°
Mean anomaly
202.6998°
Eccentric anomaly
202.65825°
Mean motion
3.6495 °/min
Orbital period
98.64 mins
BSTAR
0.0038414
Loading maneuver chart data...
Computing Atmospheric mass density...

Documentation

Showing up to 5 results
|